Flag for Canada Weather past 2 weeks in Pond Inlet, Nunavut Territory, Canada

Now
-26 °F

Scattered clouds.


Feels Like: -47 °F
Forecast: N/A
Wind: 9 mph from South

Location: Pond Inlet

Current Time: Dec 20, 2014 at 4:20:20 PM

Latest Report: Dec 20, 2014 at 3:00 PM


Visibility: 15 mi

Pressure: 29.96 "Hg

Humidity: 75%

Dew point: -31 °F

Location of Pond InletLocation

Historic Weather in Pond Inlet — Graph

°F

Pond Inlet temperature yesterday

Maximum temperature yesterday: -20 °F (at 6:00 AM)
Minimum temperature yesterday: -27 °F (at 2:00 AM)
Average temperature yesterday: -24 °F

Past Weeks' High & Low Weather Summary

 TemperatureHumidityPressure
High5 °F (Dec 10, 6:00 PM)92% (Dec 10, 3:00 PM)30.15 "Hg (Dec 10, 3:00 PM)
Low-33 °F (Dec 8, 10:00 AM)60% (Dec 8, 11:00 AM)29.43 "Hg (Dec 11, 9:00 AM)
Average-18 °F74%29.86 "Hg
* Reported Dec 5 3:00 PM — Dec 20 3:00 PM, Pond Inlet, Weather by CustomWeather, © 2014

Note: Actual official high and low records may vary slightly from our data, if they occured in-between our weather recording intervals... More about our weather records

Advertising

Pond Inlet weather history for previous 24 hours

 ConditionsComfort  
Time TempWeatherWind HumidityBarometerVisibility
3:00 PM
Dec 20
-26 °FScattered clouds.9 mph75%29.96 "Hg15 mi
2:00 PM-27 °FScattered clouds.9 mph74%29.96 "Hg15 mi
1:00 PM-24 °FSunny.7 mph68%29.97 "Hg9 mi
12:00 PM-24 °FSunny.9 mph75%29.97 "Hg9 mi
11:00 AM-24 °FSunny.10 mph68%29.98 "Hg9 mi
10:00 AM-24 °FSunny.7 mph68%29.99 "Hg9 mi
9:00 AM-26 °FSunny.7 mph75%30.01 "Hg9 mi
8:00 AM-24 °FSunny.7 mph68%30.02 "Hg9 mi
7:00 AM-24 °FSunny.7 mph68%30.03 "Hg9 mi
6:00 AM-24 °FSunny.7 mph68%30.04 "Hg9 mi
5:00 AM-22 °FClear.6 mph68%30.06 "Hg9 mi
4:00 AM-24 °FClear.7 mph75%30.08 "Hg9 mi
3:00 AM-22 °FClear.9 mph75%30.08 "Hg9 mi
2:00 AM-22 °FClear.9 mph68%30.09 "Hg9 mi
1:00 AM-24 °FClear.9 mph75%30.09 "Hg9 mi
12:00 AM-24 °FSunny.9 mph75%30.10 "Hg9 mi
11:00 PM
Dec 19
-24 °FClear.10 mph75%30.11 "Hg9 mi
10:00 PM-24 °FClear.10 mph68%30.11 "Hg9 mi
9:00 PM-26 °FClear.9 mph67%30.12 "Hg9 mi
8:00 PM-24 °FClear.9 mph68%30.13 "Hg9 mi
7:00 PM-22 °FPassing clouds.6 mph68%30.13 "Hg15 mi
6:00 PM-22 °FPassing clouds.8 mph68%30.14 "Hg15 mi
5:00 PM-24 °FPassing clouds.8 mph75%30.15 "Hg15 mi
4:00 PM-27 °FPassing clouds.8 mph74%30.15 "Hg15 mi
Weather by CustomWeather, © 2014

See weather overviewHow to use our weather pages